Terug naar catalogus

USA 238 DEB

ActiefLEO
NORAD 38773·DEBRIS·🇺🇸 United States

Gelanceerd Sep 13, 2012 vanaf Vandenberg Space Force Base

Loading…

Volgende Passages (komende 24 uur)

TLE

VerouderdSource: Mike McCants

Epoch: Jul 20, 2026, 20:53 UTC

1 38773U 12048P   26201.87048512 0.00000000  00000-0  00000-0 0    02
2 38773  63.4244 122.7472 0311724 358.6294   1.3706 13.41005328    07

Volg USA 238 DEB in realtime met AllMySat

Download on the App Store